HP1GDP-12 Weather Reports


time (UTC)temp
F
wind
direction
speed
knots
gust
knots
rain 1hr
in
rain 24hr
in
rain mn
in
humidity
%
barometer
mb
20260503033710 87 0.0 0.0 0.00 0.00 0.00 31 1005.7
20260503030657 88 0.0 0.0 0.00 0.00 0.00 30 1005.6
20260503025653 88 0.0 0.0 0.00 0.00 0.00 30 1005.5
20260503024650 88 0.0 0.0 0.00 0.00 0.00 30 1005.5
20260503022641 90 0.0 0.0 0.00 0.00 0.00 32 1005.2
20260503021636 90 0.0 0.0 0.00 0.00 0.00 32 1005.1
20260503020632 90 0.0 0.0 0.00 0.00 0.00 33 1005.1
20260503015628 90 0.0 0.0 0.00 0.00 0.00 33 1005.2
20260503014624 90 0.0 0.0 0.00 0.00 0.00 33 1005.1
20260503013620 90 0.0 0.0 0.00 0.00 0.00 33 1005.1
20260503012616 90 0.0 0.0 0.00 0.00 0.00 33 1005.1
20260503011612 90 0.0 0.0 0.00 0.00 0.00 33 1005.1
20260503010608 91 0.0 0.0 0.00 0.00 0.00 31 1004.9
20260503005603 91 0.0 0.0 0.00 0.00 0.00 33 1004.7
20260503004600 90 0.0 0.0 0.00 0.00 0.00 32 1004.6
20260503003556 91 0.0 0.0 0.00 0.00 0.00 32 1004.6
20260503002551 91 0.0 0.0 0.00 0.00 0.00 32 1004.5
20260503001547 91 0.0 0.0 0.00 0.00 0.00 33 1004.7
20260503000543 91 0.0 0.0 0.00 0.00 0.00 33 1004.8
20260502233530 92 0.0 0.0 0.00 0.00 0.00 37 1005.0
20260502232526 92 0.0 0.0 0.00 0.00 0.00 39 1005.0
20260502231522 92 0.0 0.0 0.00 0.00 0.00 42 1005.0
20260502225514 92 0.0 0.0 0.00 0.00 0.00 47 1004.9
20260502224510 92 0.0 0.0 0.00 0.00 0.00 47 1004.9
20260502223506 92 0.0 0.0 0.00 0.00 0.00 47 1004.8
20260502222501 92 0.0 0.0 0.00 0.00 0.00 47 1004.7
20260502221458 92 0.0 0.0 0.00 0.00 0.00 47 1004.8
20260502220454 92 0.0 0.0 0.00 0.00 0.00 47 1004.8
20260502215450 92 0.0 0.0 0.00 0.00 0.00 48 1004.8
20260502214445 92 0.0 0.0 0.00 0.00 0.00 47 1005.0
20260502213441 92 0.0 0.0 0.00 0.00 0.00 48 1004.9
20260502212437 92 0.0 0.0 0.00 0.00 0.00 49 1004.8
20260502211433 92 0.0 0.0 0.00 0.00 0.00 49 1005.0
20260502210430 92 0.0 0.0 0.00 0.00 0.00 49 1005.0
20260502204421 93 0.0 0.0 0.00 0.00 0.00 47 1004.6
20260502203417 93 0.0 0.0 0.00 0.00 0.00 47 1004.8
20260502202413 93 0.0 0.0 0.00 0.00 0.00 47 1004.4
20260502201410 93 0.0 0.0 0.00 0.00 0.00 47 1003.7
20260502200404 93 0.0 0.0 0.00 0.00 0.00 47 1003.3
20260502195400 93 0.0 0.0 0.00 0.00 0.00 47 1003.1
20260502194356 93 0.0 0.0 0.00 0.00 0.00 47 1003.1
20260502193351 93 0.0 0.0 0.00 0.00 0.00 47 1003.2
20260502192347 93 0.0 0.0 0.00 0.00 0.00 47 1003.2
20260502191344 93 0.0 0.0 0.00 0.00 0.00 47 1003.2
20260502190340 93 0.0 0.0 0.00 0.00 0.00 47 1003.0
20260502185335 93 0.0 0.0 0.00 0.00 0.00 47 1003.2
20260502184331 93 0.0 0.0 0.00 0.00 0.00 47 1003.1
20260502182323 93 0.0 0.0 0.00 0.00 0.00 47 1003.6
20260502181319 93 0.0 0.0 0.00 0.00 0.00 46 1003.7
20260502180315 93 0.0 0.0 0.00 0.00 0.00 46 1003.9
20260502170250 93 0.0 0.0 0.00 0.00 0.00 44 1004.3
20260502163238 93 0.0 0.0 0.00 0.00 0.00 44 1004.7
20260502161230 93 0.0 0.0 0.00 0.00 0.00 45 1005.2
20260502160225 93 0.0 0.0 0.00 0.00 0.00 46 1005.3
20260502152210 92 0.0 0.0 0.00 0.00 0.00 45 1005.3
20260502151204 92 0.0 0.0 0.00 0.00 0.00 44 1004.9
20260502150200 92 0.0 0.0 0.00 0.00 0.00 44 1004.6
20260502130112 91 0.0 0.0 0.00 0.00 0.00 46 1003.6
20260502123059 91 0.0 0.0 0.00 0.00 0.00 46 1003.3
20260502121051 91 0.0 0.0 0.00 0.00 0.00 46 1003.1
20260502115042 91 0.0 0.0 0.00 0.00 0.00 46 1002.4
20260502113035 91 0.0 0.0 0.00 0.00 0.00 47 1002.3
20260502112030 91 0.0 0.0 0.00 0.00 0.00 47 1002.3
20260502111026 91 0.0 0.0 0.00 0.00 0.00 47 1002.3
20260502110022 91 0.0 0.0 0.00 0.00 0.00 47 1002.3
20260502104014 91 0.0 0.0 0.00 0.00 0.00 47 1001.9
20260502103010 90 0.0 0.0 0.00 0.00 0.00 47 1002.1
20260502101001 90 0.0 0.0 0.00 0.00 0.00 47 1001.9
20260502090937 89 0.0 0.0 0.00 0.00 0.00 46 1001.3
20260502070836 86 0.0 0.0 0.00 0.00 0.00 40 1002.1
20260502065831 86 0.0 0.0 0.00 0.00 0.00 38 1002.3
20260502064826 86 0.0 0.0 0.00 0.00 0.00 37 1002.3
20260502063822 86 0.0 0.0 0.00 0.00 0.00 34 1002.4
20260502062818 87 0.0 0.0 0.00 0.00 0.00 43 1002.4
20260502061814 87 0.0 0.0 0.00 0.00 0.00 40 1002.5
20260502060810 86 0.0 0.0 0.00 0.00 0.00 33 1002.7
20260502054801 87 0.0 0.0 0.00 0.00 0.00 36 1002.7
20260502053758 87 0.0 0.0 0.00 0.00 0.00 40 1002.9
20260502052754 87 0.0 0.0 0.00 0.00 0.00 43 1002.9
20260502051750 87 0.0 0.0 0.00 0.00 0.00 39 1002.9
20260502050745 87 0.0 0.0 0.00 0.00 0.00 31 1002.6
20260502045741 88 0.0 0.0 0.00 0.00 0.00 35 1002.2
20260502044737 87 0.0 0.0 0.00 0.00 0.00 32 1002.3
20260502042728 88 0.0 0.0 0.00 0.00 0.00 33 1002.5
20260502041725 88 0.0 0.0 0.00 0.00 0.00 35 1002.6
20260502040721 88 0.0 0.0 0.00 0.00 0.00 34 1003.1
20260502035717 88 0.0 0.0 0.00 0.00 0.00 30 1003.0
20260502034713 89 0.0 0.0 0.00 0.00 0.00 30 1003.0